Find Starlink 3640

NORAD ID: 51988 Int'l Des: 2022-025 Owner: SPXS Country: US Constellation: starlink operational
LEOCIRCULAR

現在のビュー

3D地球を読み込み中...

Starlink 3640について

説明を読み込み中...

次回通過

Passes for default location (London). Set your location on the main map for personalized predictions.

高度履歴

Loading altitude history...

軌道要素

1 51988U 22025AJ 26149.11173082 -.00000280 00000-0 51437-6 0 9994
2 51988 53.2014 38.0874 0001322 76.3571 283.7568 15.08837205233203
Epoch: May 29, 2026 • Age: 22 hours

現在のステータス

高度 552.1 km
速度 7.59 km/s
衛星直下点 -36.15°S, 5.85°W
打ち上げ日 Mar 9, 2022
運用期間 4.2 years
タイプ internet

技術仕様

分類 Payload
質量 297.00 kg
乾燥質量 275.00 kg
総質量 297.00 kg
長さ 0.20 m
直径 2.80 m
スパン 9.00 m
形状 Box + pan
製造者 SPXS
バスタイプ Starlink
フェーズステータス In Orbit
所有者/国 SPXS/US

Most Searched